Location: Observatoire
(46.1952°N, 5.3391°E)
Time: 22:46:25
(UTC+01:00)

Tiros 1 despin weight - Pass Details

Date: 19 February 2026
Orbit: 556 x 593 km, 48.2° (Epoch: 7 March)

Event Time Altitude Azimuth Distance (km) Brightness Sun altitude
Rises 18:09:16 0° 278° (W) 2,735 ? -0.7°
Reaches altitude 10° 18:11:32 10° 281° (W) 1,838 ? -1.0°
Maximum altitude 18:15:43 67° 4° (N) 606 ? -1.7°
Drops below altitude 10° 18:19:53 10° 88° (E) 1,838 ? -2.4°
Enters shadow 18:21:31 - 90° (E) 2,479 ? -2.7°
Sets 18:22:09 0° 91° (E) 2,735 - -2.8°
